| time (UTC) | temp F | wind direction | speed MPH | gust MPH | rain 1hr in | rain 24hr in | rain mn in | humidity % | barometer mb |
| 20260510163816 | 64 | 308 | 2.0 | 3.0 | 0.00 | 0.00 | 0.00 | 60 | 1009.8 |
| 20260510162316 | 64 | 48 | 2.0 | 5.0 | 0.00 | 0.00 | 0.00 | 59 | 1009.7 |
| 20260510161817 | 64 | 59 | 2.0 | 7.0 | 0.00 | 0.00 | 0.00 | 59 | 1009.7 |
| 20260510161316 | 64 | 73 | 3.0 | 5.0 | 0.00 | 0.00 | 0.00 | 60 | 1009.7 |
| 20260510160816 | 65 | 70 | 3.0 | 9.0 | 0.00 | 0.00 | 0.00 | 59 | 1009.7 |
| 20260510160316 | 65 | 29 | 2.0 | 8.0 | 0.00 | 0.00 | 0.00 | 59 | 1009.7 |
| 20260510155816 | 65 | 24 | 2.0 | 8.0 | 0.00 | 0.00 | 0.00 | 59 | 1009.7 |
| 20260510155316 | 65 | 295 | 3.0 | 8.0 | 0.00 | 0.00 | 0.00 | 58 | 1009.9 |
| 20260510154816 | 65 | 36 | 3.0 | 10.0 | 0.00 | 0.00 | 0.00 | 59 | 1009.9 |
| 20260510153820 | 66 | 76 | 3.0 | 5.0 | 0.00 | 0.00 | 0.00 | 58 | 1010.1 |
| 20260510152816 | 66 | 9 | 3.0 | 12.0 | 0.00 | 0.00 | 0.00 | 57 | 1010.1 |
| 20260510152316 | 66 | 344 | 2.0 | 7.0 | 0.00 | 0.00 | 0.00 | 56 | 1010.2 |
| 20260510151816 | 66 | 53 | 2.0 | 6.0 | 0.00 | 0.00 | 0.00 | 57 | 1010.2 |
| 20260510151316 | 66 | 320 | 3.0 | 12.0 | 0.00 | 0.00 | 0.00 | 57 | 1010.2 |
| 20260510150816 | 66 | 72 | 3.0 | 10.0 | 0.00 | 0.00 | 0.00 | 55 | 1010.4 |
| 20260510145816 | 67 | 100 | 2.0 | 7.0 | 0.00 | 0.00 | 0.00 | 56 | 1010.4 |
| 20260510144316 | 66 | 141 | 3.0 | 8.0 | 0.00 | 0.00 | 0.00 | 56 | 1010.7 |
| 20260510142816 | 67 | 12 | 5.0 | 10.0 | 0.00 | 0.00 | 0.00 | 57 | 1010.9 |
| 20260510142316 | 67 | 355 | 3.0 | 12.0 | 0.00 | 0.00 | 0.00 | 55 | 1011.1 |
| 20260510140817 | 67 | 174 | 5.0 | 8.0 | 0.00 | 0.00 | 0.00 | 56 | 1011.2 |
| 20260510135816 | 67 | 96 | 5.0 | 8.0 | 0.00 | 0.00 | 0.00 | 54 | 1011.2 |
| 20260510135316 | 67 | 356 | 3.0 | 8.0 | 0.00 | 0.00 | 0.00 | 57 | 1011.5 |
| 20260510134816 | 66 | 59 | 3.0 | 9.0 | 0.00 | 0.00 | 0.00 | 56 | 1011.5 |
| 20260510133817 | 66 | 122 | 5.0 | 12.0 | 0.00 | 0.00 | 0.00 | 57 | 1011.7 |
| 20260510132817 | 66 | 107 | 5.0 | 9.0 | 0.00 | 0.00 | 0.00 | 58 | 1011.7 |
| 20260510132316 | 65 | 73 | 2.0 | 14.0 | 0.00 | 0.00 | 0.00 | 56 | 1012.0 |
| 20260510131316 | 65 | 96 | 3.0 | 8.0 | 0.00 | 0.00 | 0.00 | 58 | 1012.0 |
| 20260510130816 | 65 | 107 | 3.0 | 13.0 | 0.00 | 0.00 | 0.00 | 57 | 1012.2 |
| 20260510130317 | 65 | 96 | 5.0 | 9.0 | 0.00 | 0.00 | 0.00 | 58 | 1012.2 |
| 20260510125316 | 65 | 80 | 5.0 | 9.0 | 0.00 | 0.00 | 0.00 | 58 | 1012.4 |
| 20260510124315 | 65 | 31 | 3.0 | 15.0 | 0.00 | 0.00 | 0.00 | 57 | 1012.4 |
| 20260510123315 | 65 | 109 | 2.0 | 8.0 | 0.00 | 0.00 | 0.00 | 60 | 1012.6 |
| 20260510120816 | 63 | 140 | 3.0 | 7.0 | 0.00 | 0.00 | 0.00 | 61 | 1013.0 |
| 20260510120316 | 63 | 67 | 5.0 | 9.0 | 0.00 | 0.00 | 0.00 | 60 | 1013.0 |
| 20260510115816 | 63 | 91 | 5.0 | 9.0 | 0.00 | 0.00 | 0.00 | 60 | 1013.0 |
| 20260510115315 | 63 | 50 | 5.0 | 9.0 | 0.00 | 0.00 | 0.00 | 60 | 1013.2 |
| 20260510114316 | 63 | 61 | 3.0 | 8.0 | 0.00 | 0.00 | 0.00 | 63 | 1013.2 |
| 20260510113316 | 63 | 84 | 5.0 | 8.0 | 0.00 | 0.00 | 0.00 | 64 | 1013.4 |
| 20260510112816 | 63 | 317 | 5.0 | 9.0 | 0.00 | 0.00 | 0.00 | 63 | 1013.4 |
| 20260510111816 | 63 | 112 | 3.0 | 8.0 | 0.00 | 0.00 | 0.00 | 66 | 1013.5 |
| 20260510110816 | 63 | 46 | 3.0 | 6.0 | 0.00 | 0.00 | 0.00 | 65 | 1013.5 |
| 20260510110316 | 63 | 96 | 5.0 | 9.0 | 0.00 | 0.00 | 0.00 | 64 | 1013.5 |
| 20260510105815 | 62 | 352 | 5.0 | 21.0 | 0.00 | 0.00 | 0.00 | 64 | 1013.5 |
| 20260510105315 | 62 | 107 | 3.0 | 12.0 | 0.00 | 0.00 | 0.00 | 67 | 1013.6 |
| 20260510104317 | 61 | 10 | 2.0 | 12.0 | 0.00 | 0.00 | 0.00 | 67 | 1013.6 |
| 20260510103816 | 61 | 32 | 2.0 | 8.0 | 0.00 | 0.00 | 0.00 | 65 | 1013.7 |
| 20260510102815 | 61 | 114 | 3.0 | 8.0 | 0.00 | 0.00 | 0.00 | 64 | 1013.7 |
| 20260510101816 | 61 | 107 | 3.0 | 8.0 | 0.00 | 0.00 | 0.00 | 64 | 1013.8 |
| 20260510101316 | 61 | 60 | 5.0 | 7.0 | 0.00 | 0.00 | 0.00 | 65 | 1013.8 |
| 20260510100817 | 60 | 87 | 5.0 | 8.0 | 0.00 | 0.00 | 0.00 | 65 | 1013.8 |
| 20260510095316 | 61 | 90 | 5.0 | 7.0 | 0.00 | 0.00 | 0.00 | 66 | 1014.0 |
| 20260510094816 | 60 | 48 | 5.0 | 8.0 | 0.00 | 0.00 | 0.00 | 65 | 1014.0 |
| 20260510094315 | 61 | 50 | 2.0 | 13.0 | 0.00 | 0.00 | 0.00 | 65 | 1014.0 |
| 20260510093816 | 61 | 67 | 2.0 | 8.0 | 0.00 | 0.00 | 0.00 | 65 | 1014.1 |
| 20260510093316 | 60 | 13 | 3.0 | 9.0 | 0.00 | 0.00 | 0.00 | 66 | 1014.1 |
| 20260510092315 | 60 | 81 | 2.0 | 9.0 | 0.00 | 0.00 | 0.00 | 67 | 1014.2 |
| 20260510091816 | 60 | 60 | 2.0 | 7.0 | 0.00 | 0.00 | 0.00 | 68 | 1014.2 |
| 20260510091316 | 60 | 37 | 5.0 | 7.0 | 0.00 | 0.00 | 0.00 | 67 | 1014.2 |
| 20260510090816 | 59 | 65 | 5.0 | 8.0 | 0.00 | 0.00 | 0.00 | 67 | 1014.3 |
| 20260510085316 | 59 | 18 | 2.0 | 9.0 | 0.00 | 0.00 | 0.00 | 68 | 1014.4 |
| 20260510084816 | 59 | 53 | 2.0 | 5.0 | 0.00 | 0.00 | 0.00 | 69 | 1014.4 |
| 20260510082816 | 58 | 5 | 5.0 | 13.0 | 0.00 | 0.00 | 0.00 | 69 | 1014.4 |
| 20260510082315 | 59 | 52 | 2.0 | 14.0 | 0.00 | 0.00 | 0.00 | 70 | 1014.5 |
| 20260510080816 | 58 | 47 | 3.0 | 6.0 | 0.00 | 0.00 | 0.00 | 76 | 1014.5 |
| 20260510080315 | 57 | 75 | 2.0 | 10.0 | 0.00 | 0.00 | 0.00 | 76 | 1014.5 |
| 20260510075316 | 57 | 92 | 2.0 | 6.0 | 0.00 | 0.00 | 0.00 | 80 | 1014.7 |
| 20260510074816 | 56 | 59 | 2.0 | 7.0 | 0.00 | 0.00 | 0.00 | 80 | 1014.7 |
| 20260510074322 | 56 | 81 | 2.0 | 7.0 | 0.00 | 0.00 | 0.00 | 81 | 1014.7 |
| 20260510072822 | 54 | 88 | 2.0 | 8.0 | 0.00 | 0.00 | 0.00 | 87 | 1014.6 |
| 20260510072315 | 53 | 84 | 0.0 | 6.0 | 0.00 | 0.00 | 0.00 | 91 | 1014.7 |
| 20260510071315 | 52 | 160 | 0.0 | 3.0 | 0.00 | 0.00 | 0.00 | 93 | 1014.7 |
| 20260510064816 | 50 | 167 | 0.0 | 0.0 | 0.00 | 0.00 | 0.00 | 96 | 1014.8 |
| 20260510064316 | 50 | 167 | 0.0 | 0.0 | 0.00 | 0.00 | 0.00 | 96 | 1014.8 |
| 20260510063816 | 49 | 167 | 0.0 | 1.0 | 0.00 | 0.00 | 0.00 | 96 | 1014.7 |
| 20260510062316 | 48 | 287 | 0.0 | 0.0 | 0.00 | 0.00 | 0.00 | 97 | 1014.6 |
| 20260510061316 | 48 | 288 | 0.0 | 0.0 | 0.00 | 0.00 | 0.00 | 97 | 1014.6 |
| 20260510060816 | 48 | 288 | 0.0 | 0.0 | 0.00 | 0.00 | 0.00 | 97 | 1014.6 |
| 20260510060316 | 47 | 288 | 0.0 | 0.0 | 0.00 | 0.00 | 0.00 | 97 | 1014.6 |
| 20260510055331 | 47 | 288 | 0.0 | 0.0 | 0.00 | 0.00 | 0.00 | 97 | 1014.5 |
| 20260510054815 | 47 | 288 | 0.0 | 0.0 | 0.00 | 0.00 | 0.00 | 97 | 1014.5 |
| 20260510053816 | 46 | 288 | 0.0 | 0.0 | 0.00 | 0.00 | 0.00 | 97 | 1014.6 |
| 20260510052815 | 46 | 288 | 0.0 | 1.0 | 0.00 | 0.00 | 0.00 | 97 | 1014.6 |
| 20260510051815 | 45 | 289 | 0.0 | 0.0 | 0.00 | 0.00 | 0.00 | 97 | 1014.6 |
| 20260510050815 | 45 | 289 | 0.0 | 0.0 | 0.00 | 0.00 | 0.00 | 97 | 1014.6 |
| 20260510050315 | 45 | 289 | 0.0 | 0.0 | 0.00 | 0.00 | 0.00 | 97 | 1014.6 |
| 20260510045316 | 44 | 289 | 0.0 | 0.0 | 0.00 | 0.00 | 0.00 | 97 | 1014.7 |
| 20260510044315 | 44 | 289 | 0.0 | 0.0 | 0.00 | 0.00 | 0.00 | 97 | 1014.7 |
| 20260510043815 | 44 | 289 | 0.0 | 0.0 | 0.00 | 0.00 | 0.00 | 97 | 1014.7 |
| 20260510042815 | 43 | 289 | 0.0 | 0.0 | 0.00 | 0.00 | 0.00 | 96 | 1014.7 |
| 20260510042315 | 43 | 289 | 0.0 | 0.0 | 0.00 | 0.00 | 0.00 | 96 | 1014.7 |
| 20260510041816 | 43 | 289 | 0.0 | 0.0 | 0.00 | 0.00 | 0.00 | 96 | 1014.7 |
| 20260510041316 | 43 | 289 | 0.0 | 0.0 | 0.00 | 0.00 | 0.00 | 96 | 1014.7 |
| 20260510040315 | 42 | 289 | 0.0 | 0.0 | 0.00 | 0.00 | 0.00 | 95 | 1014.8 |
| 20260510035316 | 42 | 289 | 0.0 | 0.0 | 0.00 | 0.00 | 0.00 | 95 | 1014.9 |
| 20260510033315 | 43 | 289 | 0.0 | 0.0 | 0.00 | 0.00 | 0.00 | 95 | 1014.9 |
| 20260510032315 | 43 | 289 | 0.0 | 0.0 | 0.00 | 0.00 | 0.00 | 95 | 1015.0 |
| 20260510031815 | 43 | 289 | 0.0 | 0.0 | 0.00 | 0.00 | 0.00 | 95 | 1015.0 |
| 20260510030315 | 43 | 289 | 0.0 | 0.0 | 0.00 | 0.00 | 0.00 | 95 | 1015.1 |
| 20260510024816 | 43 | 158 | 0.0 | 0.0 | 0.00 | 0.00 | 0.00 | 95 | 1015.2 |
| 20260510024316 | 43 | 158 | 0.0 | 0.0 | 0.00 | 0.00 | 0.00 | 95 | 1015.2 |
| 20260510023816 | 43 | 158 | 0.0 | 0.0 | 0.00 | 0.00 | 0.00 | 95 | 1015.1 |
| 20260510021816 | 43 | 158 | 0.0 | 0.0 | 0.00 | 0.00 | 0.00 | 95 | 1015.2 |
| 20260510020816 | 44 | 158 | 0.0 | 0.0 | 0.00 | 0.00 | 0.00 | 95 | 1015.4 |
| 20260510020315 | 43 | 158 | 0.0 | 1.0 | 0.00 | 0.00 | 0.00 | 94 | 1015.4 |
| 20260510015815 | 44 | 158 | 0.0 | 0.0 | 0.00 | 0.00 | 0.00 | 94 | 1015.4 |
| 20260510015315 | 44 | 158 | 0.0 | 0.0 | 0.00 | 0.00 | 0.00 | 94 | 1015.4 |
| 20260510014815 | 44 | 158 | 0.0 | 0.0 | 0.00 | 0.00 | 0.00 | 94 | 1015.4 |
| 20260510014315 | 44 | 158 | 0.0 | 0.0 | 0.00 | 0.00 | 0.00 | 94 | 1015.4 |
| 20260510012815 | 44 | 158 | 0.0 | 0.0 | 0.00 | 0.00 | 0.00 | 93 | 1015.6 |
| 20260510011315 | 44 | 158 | 0.0 | 0.0 | 0.00 | 0.00 | 0.00 | 93 | 1015.5 |
| 20260510004815 | 45 | 158 | 0.0 | 0.0 | 0.00 | 0.00 | 0.00 | 94 | 1015.5 |
| 20260510002315 | 45 | 158 | 0.0 | 0.0 | 0.00 | 0.00 | 0.00 | 92 | 1015.7 |
| 20260510001315 | 46 | 158 | 0.0 | 0.0 | 0.00 | 0.00 | 0.00 | 93 | 1015.7 |
| 20260510000318 | 46 | 158 | 0.0 | 0.0 | 0.00 | 0.00 | 0.00 | 93 | 1015.9 |
| 20260509235816 | 46 | 158 | 0.0 | 0.0 | 0.00 | 0.00 | 0.00 | 93 | 1015.9 |
| 20260509235315 | 46 | 158 | 0.0 | 1.0 | 0.00 | 0.00 | 0.00 | 93 | 1016.0 |
| 20260509233316 | 47 | 158 | 0.0 | 0.0 | 0.00 | 0.00 | 0.00 | 93 | 1016.1 |
| 20260509231315 | 47 | 158 | 0.0 | 1.0 | 0.00 | 0.00 | 0.00 | 92 | 1016.1 |
| 20260509224315 | 48 | 158 | 0.0 | 1.0 | 0.00 | 0.00 | 0.00 | 91 | 1016.3 |
| 20260509223816 | 48 | 158 | 0.0 | 0.0 | 0.00 | 0.00 | 0.00 | 91 | 1016.5 |
| 20260509223315 | 49 | 158 | 0.0 | 0.0 | 0.00 | 0.00 | 0.00 | 91 | 1016.5 |
| 20260509222315 | 49 | 158 | 0.0 | 1.0 | 0.00 | 0.00 | 0.00 | 91 | 1016.4 |
| 20260509220816 | 49 | 158 | 0.0 | 0.0 | 0.00 | 0.00 | 0.00 | 90 | 1016.5 |
| 20260509220315 | 49 | 158 | 0.0 | 1.0 | 0.00 | 0.00 | 0.00 | 90 | 1016.5 |
| 20260509215816 | 49 | 158 | 0.0 | 0.0 | 0.00 | 0.00 | 0.00 | 89 | 1016.5 |
| 20260509215315 | 50 | 158 | 0.0 | 1.0 | 0.00 | 0.00 | 0.00 | 89 | 1016.5 |
| 20260509211315 | 51 | 158 | 0.0 | 0.0 | 0.00 | 0.00 | 0.00 | 87 | 1016.7 |
| 20260509210815 | 51 | 158 | 0.0 | 2.0 | 0.00 | 0.00 | 0.00 | 87 | 1016.6 |
| 20260509205315 | 51 | 130 | 0.0 | 0.0 | 0.00 | 0.00 | 0.00 | 85 | 1016.7 |
| 20260509204315 | 52 | 130 | 0.0 | 0.0 | 0.00 | 0.00 | 0.00 | 84 | 1016.7 |
| 20260509203315 | 52 | 127 | 0.0 | 0.0 | 0.00 | 0.00 | 0.00 | 83 | 1016.5 |
| 20260509202315 | 53 | 127 | 0.0 | 0.0 | 0.00 | 0.00 | 0.00 | 81 | 1016.6 |
| 20260509195815 | 54 | 127 | 0.0 | 0.0 | 0.00 | 0.00 | 0.00 | 79 | 1016.5 |
| 20260509195316 | 55 | 127 | 0.0 | 0.0 | 0.00 | 0.00 | 0.00 | 77 | 1016.4 |
| 20260509194815 | 55 | 124 | 0.0 | 2.0 | 0.00 | 0.00 | 0.00 | 76 | 1016.4 |
| 20260509193815 | 56 | 112 | 0.0 | 0.0 | 0.00 | 0.00 | 0.00 | 76 | 1016.3 |
| 20260509192316 | 57 | 77 | 0.0 | 0.0 | 0.00 | 0.00 | 0.00 | 74 | 1016.2 |
| 20260509191315 | 58 | 77 | 1.0 | 2.0 | 0.00 | 0.00 | 0.00 | 71 | 1016.2 |
| 20260509185815 | 61 | 64 | 1.0 | 3.0 | 0.00 | 0.00 | 0.00 | 66 | 1016.1 |
| 20260509184315 | 64 | 48 | 0.0 | 0.0 | 0.00 | 0.00 | 0.00 | 61 | 1016.0 |
| 20260509183314 | 65 | 48 | 0.0 | 2.0 | 0.00 | 0.00 | 0.00 | 56 | 1016.2 |
| 20260509182315 | 67 | 49 | 2.0 | 2.0 | 0.00 | 0.00 | 0.00 | 51 | 1015.9 |
| 20260509181315 | 67 | 19 | 1.0 | 6.0 | 0.00 | 0.00 | 0.00 | 50 | 1015.9 |
| 20260509180815 | 68 | 34 | 1.0 | 5.0 | 0.00 | 0.00 | 0.00 | 49 | 1015.8 |
| 20260509173314 | 69 | 34 | 3.0 | 5.0 | 0.00 | 0.00 | 0.00 | 48 | 1015.5 |
| 20260509172815 | 69 | 36 | 3.0 | 7.0 | 0.00 | 0.00 | 0.00 | 48 | 1015.5 |
| 20260509172315 | 69 | 77 | 6.0 | 7.0 | 0.00 | 0.00 | 0.00 | 49 | 1015.4 |
| 20260509171815 | 69 | 332 | 6.0 | 10.0 | 0.00 | 0.00 | 0.00 | 47 | 1015.4 |
| 20260509170815 | 69 | 5 | 2.0 | 18.0 | 0.00 | 0.00 | 0.00 | 46 | 1015.4 |
| 20260509170316 | 69 | 326 | 2.0 | 6.0 | 0.00 | 0.00 | 0.00 | 48 | 1015.4 |
| 20260509164316 | 69 | 350 | 7.0 | 6.0 | 0.00 | 0.00 | 0.00 | 47 | 1015.5 |